Tonopah, NV

2:30 PM PDT on August 28, 2016 (GMT -0700)
Tonopah

Weather History for KTPH - December, 2013

Change the Weather History Date:

Saturday, December 28, 2013

  Actual Average Record
Temperature  
Mean Temperature 38 °F 31 °F  
Max Temperature 52 °F 44 °F 64 °F (1980)
Min Temperature 23 °F 19 °F 0 °F (1971)
Degree Days  
Heating Degree Days 27 34  
Month to date heating degree days 967 928  
Since 1 July heating degree days 2194 2145  
Cooling Degree Days 0 0  
Month to date cooling degree days 0 0  
Year to date cooling degree days 1042 783  
Moisture  
Dew Point 14 °F    
Average Humidity 37    
Maximum Humidity 55    
Minimum Humidity 19    
Precipitation  
Precipitation 0.00 in 0.01 in 0.20 in (1977)
Month to date precipitation 0.04 0.28  
Year to date precipitation 4.49 5.21  
Sea Level Pressure  
Sea Level Pressure 30.17 in    
Wind  
Wind Speed 13 mph (NNW)    
Max Wind Speed 25 mph    
Max Gust Speed 31 mph    
Visibility 10 miles    
Events      
T = Trace of Precipitation, MM = Missing Value Source: NWS Daily Summary

Daily Weather History Graph

Daily Weather History Graph

Search for Another Location

Airport or City:

Trip Planner

Search our weather history database for the weather conditions in past years. The results will help you decide how hot, cold, wet, or windy it might be!

Date:

Astronomy

Dec. 28, 2013 Rise Set
Actual Time 7:03 AM PST 4:36 PM PST
Civil Twilight 6:34 AM PST 5:06 PM PST
Nautical Twilight 6:01 AM PST 5:39 PM PST
Astronomical Twilight 5:29 AM PST 6:11 PM PST
Moon 2:47 AM PST 1:29 PM PST
Length of Visible Light 10h 31m
Length of Day
9h 32m
Waning Crescent, 18% of the Moon is Illuminated
Dec 28
Waning Crescent
Jan 1
New
Jan 7
First Quarter
Jan 15
Full
Jan 23
Last Quarter

Hourly Weather History & Observations

Time (PST) Temp. Windchill Dew Point Humidity Pressure Visibility Wind Dir Wind Speed Gust Speed Precip Events Conditions
12:56 AM 32.0 °F 26.4 °F 12.9 °F 45% 30.14 in 10.0 mi North 5.8 mph - N/A   Clear
1:56 AM 30.9 °F 22.2 °F 14.0 °F 50% 30.14 in 10.0 mi North 10.4 mph - N/A   Clear
2:56 AM 30.0 °F 26.5 °F 10.9 °F 45% 30.12 in 10.0 mi NNW 3.5 mph - N/A   Clear
3:56 AM 25.0 °F 15.5 °F 9.0 °F 51% 30.13 in 10.0 mi North 9.2 mph - N/A   Clear
4:56 AM 26.1 °F 15.6 °F 10.9 °F 53% 30.14 in 10.0 mi North 11.5 mph - N/A   Clear
5:56 AM 24.1 °F 16.0 °F 10.0 °F 55% 30.19 in 10.0 mi North 6.9 mph - N/A   Clear
6:56 AM 24.1 °F 13.7 °F 9.0 °F 53% 30.19 in 10.0 mi North 10.4 mph - N/A   Clear
7:56 AM 27.0 °F 23.0 °F 10.0 °F 49% 30.19 in 10.0 mi NE 3.5 mph - N/A   Clear
8:56 AM 37.0 °F 34.5 °F 10.0 °F 33% 30.17 in 10.0 mi NE 3.5 mph - N/A   Clear
9:56 AM 44.1 °F 42.5 °F 10.0 °F 25% 30.15 in 10.0 mi WNW 3.5 mph - N/A   Clear
10:56 AM 51.1 °F - 10.9 °F 20% 30.12 in 10.0 mi NW 16.1 mph - N/A   Clear
11:56 AM 52.0 °F - 12.9 °F 21% 30.09 in 10.0 mi NNW 19.6 mph - N/A   Clear
12:56 PM 51.1 °F - 15.1 °F 24% 30.08 in 10.0 mi NNW 23.0 mph - N/A   Clear
1:56 PM 51.1 °F - 17.1 °F 26% 30.08 in 10.0 mi NW 23.0 mph 28.8 mph N/A   Clear
2:56 PM 51.1 °F - 12.0 °F 21% 30.09 in 10.0 mi NW 16.1 mph - N/A   Clear
3:56 PM 46.9 °F - 18.0 °F 32% 30.14 in 10.0 mi NW 19.6 mph - N/A   Clear
4:56 PM 42.1 °F 34.2 °F 19.9 °F 41% 30.18 in 10.0 mi NNW 16.1 mph - N/A   Clear
5:56 PM 39.0 °F 31.4 °F 19.9 °F 46% 30.21 in 10.0 mi NW 12.7 mph - N/A   Clear
6:56 PM 37.0 °F 27.4 °F 19.9 °F 50% 30.26 in 10.0 mi NW 17.3 mph - N/A   Clear
7:56 PM 37.9 °F 29.6 °F 16.0 °F 41% 30.25 in 10.0 mi NNW 13.8 mph - N/A   Clear
8:56 PM 37.0 °F 26.4 °F 19.0 °F 48% 30.24 in 10.0 mi NNW 20.7 mph - N/A   Clear
9:56 PM 35.1 °F 25.5 °F 17.1 °F 48% 30.23 in 10.0 mi North 15.0 mph - N/A   Clear
10:56 PM 34.0 °F 23.0 °F 16.0 °F 48% 30.23 in 10.0 mi North 18.4 mph - N/A   Clear
11:56 PM 32.0 °F 22.5 °F 12.9 °F 45% 30.27 in 10.0 mi NNW 12.7 mph - N/A   Clear